Regional Weather Roundup
Issued by NWS Green Bay, WI

Home | Current Version | Previous Version | Graphics & Text | Print | Product List | Glossary Off
Versions: 1 2 3 4 5 6 7 8 9 10 11 12 13 14 15 16 17 18 19 20 21 22 23 24 25 26 27 28 29 30 31 32 33 34 35 36 37 38 39 40 41 42 43 44 45 46 47 48 49 50

000
ASUS43 KGRB 161610
RWRGRB

NORTH-CENTRAL AND NORTHEAST WISCONSIN REGIONAL WEATHER ROUNDUP
NATIONAL WEATHER SERVICE GREEN BAY WI
1100 AM CDT TUE SEP 16 2014

WIZ005-009-010>012-018-019-161700-
NORTH CENTRAL WISCONSIN

CITY           SKY/WX    TMP DP  RH WIND       PRES   REMARKS
IRONWOOD       SUNNY     59  39  47 W16G24    30.04S
MANITOWISH WTR MOSUNNY   57  40  52 W14G20    30.09F
ARBOR VITAE    SUNNY     59  40  49 W13G20    30.10F
EAGLE RIVER    SUNNY     57  35  43 W15G21    30.09F
LAND O LAKES   SUNNY     58  37  46 W10G20    30.09F
RHINELANDER    SUNNY     57  38  48 W16G22    30.12F
PHILLIPS       SUNNY     57  40  52 SW12      30.12F
ANTIGO         SUNNY     56  39  53 W14       30.14F
TOMAHAWK       SUNNY     58  38  47 W9        30.13F
MERRILL        PTSUNNY   58  42  55 W9        30.13F
$$

WIZ013-073-161700-
NORTHEAST WISCONSIN

CITY           SKY/WX    TMP DP  RH WIND       PRES   REMARKS
IRON MOUNTAIN  SUNNY     60  39  45 W13       30.07F
MARINETTE      SUNNY     59  39  47 W7        30.11F
OCONTO         SUNNY     59  40  48 W12       30.13F
$$

WIZ017-030-035>037-045-161700-
CENTRAL WISCONSIN

CITY           SKY/WX    TMP DP  RH WIND       PRES   REMARKS
MEDFORD        SUNNY     56  42  59 W9        30.15F
WAUSAU         SUNNY     58  40  51 W10       30.14F
MOSINEE        SUNNY     57  45  62 W9        30.17S
MARSHFIELD     SUNNY     59  42  53 W10       30.16F
WISC RAPIDS    SUNNY     58  42  55 W9        30.19F
STEVENS POINT  SUNNY     55  40  56 W6        30.17F
WAUPACA        SUNNY     60  40  47 W6        30.17F
SHAWANO        SUNNY     60  42  51 W8        30.15F
CLINTONVILLE   SUNNY     59  41  51 W7        30.15F
$$

WIZ038-039-048-051-161700-
FOX VALLEY

CITY           SKY/WX    TMP DP  RH WIND       PRES   REMARKS
NWS GREEN BAY  SUNNY     59  42  53 W10       30.16F
APPLETON       SUNNY     57  39  51 W9        30.17F
OSHKOSH        SUNNY     57  41  55 W8        30.17F
FOND DU LAC    SUNNY     58  40  51 NW8       30.18F
$$

WIZ022-050-052-161700-
EAST CENTRAL WISCONSIN

CITY           SKY/WX    TMP DP  RH WIND       PRES   REMARKS
STURGEON BAY   SUNNY     57  39  51 W8        30.14F
MANITOWOC      SUNNY     58  42  55 W10       30.17F
SHEBOYGAN      SUNNY     58  40  51 NW8       30.18F
$$

LMZ563-521-522-541>543-161700-
LAKESHORE

STATION/POSITION TIME  TEMP    WIND        PRES    VSBY  WAVE
                       AIR SEA DIR/SP/G                  HT/PER
                 (UTC) (F)     (DEG/KT/KT) (MB)    (MI)  (FT/S)
SHEBOYGAN LKSHOR 1600   56 49  280/  6/  8 1022.3F
KEWAUNEE LKSHORE 1600   57     280/  3/  7 1020.1F
TWO RIVERS CG    1500   56 57              1022.2      6   1
NORTHPORT PIER   1600   58     280/  5/  9 1019.6F
N MID LAKE BUOY  1600   53 59  250/ 12/ 14 1019.8F         1/ 3
S GREEN BAY BUOY 1600   57     VRB 10/ 12  1021.2F
CHAMBERS ISLAND  1600   58     230/  6/  9 1020.0S
MENOMINEE LKSHOR 1600   58     240/ 10/ 13 1020.5F
$$


USA.gov is the U.S. government's official web portal to all federal, state and local government web resources and services.